カタログに戻る

CZ-3A DEB

運用中HEO
NORAD 35557·DEBRIS·🇨🇳 China

打ち上げ Feb 2, 2007 から Xichang Satellite Launch Center

Loading…

次のパス (今後24時間)

TLE

最新Source: Space-Track

元期: Sep 9, 2026, 22:46 UTC

1 35557U 07003R   26252.94916115  .00001575  00000-0  24299-2 0  9994
2 35557  23.3322  36.4240 6348947  47.8589 350.9406  3.41915392 25420

AllMySatでCZ-3A DEBをリアルタイム追跡

Download on the App Store